Theta_e
292 289 288 286 287 288 288 288 286 284 287 285 283 281 282 281 283 283 283 286 285 289 287 286 286 286 289 291 293 294 292 291 290 292 293 294 294 294 294 294 294 293 295 298 297 297 298 297 298 300 304 307 310 312 314 315 316 318 319 319 320 324 328 330 330 331 331 329 329 329 330 330 332 331 332 331 333 334 333 329 328 327 324 322 320 318
293 288 288 288 289 289 288 284 285 285 284 286 284 284 282 284 284 286 288 286 286 289 285 282 285 289 289 291 292 292 290 291 293 293 293 293 294 294 294 294 294 295 295 295 296 295 294 295 296 296 298 302 304 307 311 313 315 317 318 318 320 322 325 328 330 330 330 331 330 329 329 330 330 330 329 329 330 332 332 330 328 328 326 323 320 319
289 288 288 288 286 285 284 284 283 284 283 281 284 282 284 283 281 284 285 286 286 288 285 282 287 290 291 292 293 292 293 294 294 294 296 295 295 295 294 294 294 294 295 295 295 295 295 295 295 295 296 298 303 305 308 311 314 315 317 318 319 320 322 325 328 329 329 331 331 331 329 330 328 330 331 331 330 330 330 330 329 329 328 326 324 322
286 286 288 286 286 288 284 284 286 284 282 282 282 283 283 281 286 285 285 285 286 286 288 286 286 290 291 288 289 292 292 292 291 291 292 293 294 295 296 295 295 294 295 296 296 296 294 294 294 294 295 297 299 301 305 308 310 313 315 317 318 319 321 323 326 325 329 330 328 328 325 327 328 324 324 326 326 329 330 329 330 330 330 329 327 324
286 288 287 285 287 289 286 285 287 286 285 284 283 281 282 284 284 283 287 284 282 285 283 284 286 287 282 284 286 283 283 284 286 287 288 291 292 293 293 293 293 294 295 296 296 295 294 292 293 293 295 296 297 299 302 306 309 311 314 316 318 319 319 322 323 324 326 324 322 318 318 319 318 318 322 322 323 326 324 325 326 328 328 329 328 325
287 287 286 287 286 285 286 285 285 288 284 286 284 284 284 283 285 284 284 285 279 283 282 281 283 277 278 281 283 286 284 288 286 288 290 290 288 288 290 292 293 294 294 295 296 296 294 293 292 292 292 295 297 299 301 305 308 311 313 315 316 317 318 319 321 323 324 323 322 319 320 319 320 320 319 321 323 322 323 324 326 325 327 328 327 326
285 287 286 287 287 285 286 285 285 287 283 285 286 285 283 284 284 284 284 283 280 281 283 281 283 278 281 283 286 284 284 288 290 287 290 290 289 287 289 290 290 291 292 292 293 294 293 294 292 293 292 294 296 299 301 303 307 309 312 313 315 316 317 318 319 321 321 322 322 321 323 323 322 322 322 325 326 325 325 326 326 326 324 326 327 326
286 286 285 286 286 285 285 284 285 286 285 284 284 283 284 285 286 284 283 284 281 281 285 280 278 278 280 286 284 282 284 287 288 290 290 290 287 286 287 288 288 290 290 291 292 292 292 292 293 294 294 294 296 299 301 303 305 308 310 312 314 315 315 316 318 319 321 322 321 321 322 322 322 322 323 323 323 324 324 323 323 323 323 323 323 325
287 286 285 286 285 284 286 284 285 288 286 283 283 284 285 285 283 281 282 281 280 282 283 278 285 281 279 282 282 281 287 285 288 290 291 290 289 288 288 290 290 290 289 289 290 292 292 292 292 292 293 295 296 298 301 303 305 307 309 310 312 313 313 313 315 317 319 321 321 321 321 320 321 322 320 312 314 319 320 322 322 322 323 322 322 322
288 287 287 289 288 285 284 284 284 287 288 286 283 284 283 282 282 282 280 282 280 279 275 280 282 277 279 280 282 280 286 285 289 291 290 288 287 288 289 291 292 292 290 288 287 289 291 291 292 293 294 295 296 297 299 300 303 306 307 309 310 310 312 312 313 315 317 319 319 319 319 319 319 316 310 311 313 315 315 318 319 320 320 321 321 321
288 289 290 287 287 285 285 285 284 284 287 286 285 288 284 281 280 279 278 278 277 274 277 278 278 279 277 280 283 286 285 285 285 284 283 286 286 287 288 288 291 291 292 292 291 290 290 291 291 291 296 296 295 296 299 301 303 304 307 308 309 309 309 309 312 313 315 317 317 318 318 318 318 315 314 310 308 308 308 312 316 317 318 318 319 319
288 288 289 287 285 284 285 286 286 284 284 286 284 281 286 283 279 278 272 276 273 270 273 277 278 279 276 278 281 282 283 282 286 288 288 288 288 289 289 289 289 289 289 290 291 293 293 296 295 295 296 297 297 297 299 299 300 303 305 306 307 304 306 307 309 311 312 314 315 316 317 316 317 316 314 313 314 310 310 311 313 315 316 316 316 316
287 288 287 289 287 288 286 288 286 287 283 284 283 286 280 273 270 275 270 275 273 270 278 277 277 278 280 283 285 284 286 286 283 286 288 288 288 288 289 290 290 289 289 289 291 291 294 294 295 296 295 296 297 299 298 299 300 301 303 305 307 305 304 306 307 309 310 311 312 313 314 314 314 313 313 313 313 312 311 311 311 312 312 313 312 314
284 282 286 289 289 289 289 287 283 284 283 283 285 280 277 271 268 267 263 263 268 273 276 279 278 278 280 282 287 290 293 288 284 285 286 287 288 289 289 289 289 289 288 289 289 289 290 292 292 292 294 295 296 296 297 297 299 300 301 302 306 304 302 303 305 306 307 308 310 311 312 312 312 311 311 312 312 311 311 311 310 310 311 311 312 313
278 279 285 289 287 289 289 287 290 287 286 286 283 286 283 273 269 268 265 273 272 271 273 274 275 275 276 285 287 286 289 287 285 285 285 285 285 286 287 287 287 287 289 289 290 291 292 292 292 293 293 293 294 295 295 296 297 298 300 301 302 301 300 301 304 304 306 307 307 307 309 310 309 310 310 311 311 311 309 309 309 309 309 310 311 312
283 280 283 286 286 288 290 289 287 287 287 284 281 283 280 280 276 270 266 266 264 269 271 274 276 278 282 283 285 286 286 287 287 286 284 286 286 285 286 288 289 288 288 290 291 292 293 292 292 291 292 292 292 294 294 295 296 298 299 299 300 302 301 301 302 303 305 306 306 305 306 307 307 308 308 308 307 308 308 308 308 308 308 308 309 308
279 280 284 284 285 287 288 287 289 289 285 285 284 279 281 281 279 270 268 270 270 268 272 269 277 281 281 284 288 285 284 286 285 285 284 286 285 284 287 288 288 288 288 289 291 292 292 291 292 291 292 292 292 293 295 296 296 298 297 298 299 298 298 299 300 302 302 303 303 304 305 305 305 305 306 307 307 306 306 306 307 307 307 307 306 306
283 280 284 285 287 288 287 286 286 285 286 285 280 283 282 282 281 278 274 265 263 269 272 271 275 278 276 281 282 279 283 285 284 287 284 283 284 287 289 288 289 290 289 288 289 290 290 291 291 291 290 291 292 294 294 295 295 296 297 297 298 297 299 298 299 300 300 301 301 302 303 303 304 305 305 305 306 305 304 304 305 305 304 305 305 305
285 280 284 284 285 287 286 288 289 288 286 284 282 285 286 279 278 277 272 269 266 265 265 269 272 273 278 281 280 283 285 289 288 287 287 289 286 286 287 286 286 286 287 289 289 290 290 291 292 291 292 290 291 291 293 294 294 294 295 296 298 299 299 299 298 299 299 300 301 302 302 302 302 303 303 304 304 303 303 304 304 304 304 304 303 302
285 280 280 285 286 287 287 287 284 285 287 285 286 284 284 280 273 274 276 270 273 267 263 269 267 278 279 279 279 286 286 284 282 284 285 285 286 285 286 286 287 288 288 288 288 289 290 290 290 291 291 293 293 292 292 292 292 295 295 295 296 295 295 295 297 297 298 299 299 299 299 299 301 301 302 302 302 302 302 303 303 303 302 303 303 302
284 281 275 283 285 286 285 285 285 286 283 282 283 281 285 279 281 280 277 275 275 266 264 265 269 273 277 279 281 285 284 284 284 286 286 287 288 287 285 287 287 287 287 287 287 289 290 290 289 290 289 289 289 289 290 292 294 295 294 295 295 297 296 296 296 296 298 297 297 297 298 299 299 299 300 300 300 301 302 302 302 302 303 300 301 300
282 281 279 281 282 283 283 283 283 286 288 286 285 283 286 281 279 276 277 275 266 272 267 262 273 274 280 280 285 284 282 282 283 284 285 285 285 285 286 286 286 287 287 287 289 289 290 288 291 292 289 288 288 290 291 291 291 292 294 295 294 294 295 296 296 296 296 296 297 297 298 298 297 298 298 298 299 299 300 300 300 300 298 299 301 299
285 282 282 277 282 285 285 285 283 284 285 284 285 285 286 284 280 274 275 274 270 273 270 266 267 278 282 281 283 282 281 282 282 282 285 285 284 285 285 285 285 285 285 287 289 289 288 288 289 289 290 290 290 290 289 290 291 292 292 291 292 293 294 295 296 295 295 296 296 296 296 295 294 293 294 295 296 296 297 297 297 296 298 299 299 298
290 281 279 278 278 281 283 284 284 283 286 287 286 282 284 284 282 280 273 274 279 271 272 270 267 279 284 283 281 281 281 280 281 280 283 284 285 286 285 285 290 291 290 288 288 287 287 287 288 289 291 291 291 291 292 292 290 290 290 291 290 291 292 293 293 293 293 293 293 293 292 292 291 292 293 294 295 294 295 295 295 295 296 297 297 297
284 283 284 273 273 277 279 284 283 285 286 283 282 282 283 280 279 276 274 271 273 275 276 275 271 280 283 282 282 284 283 284 284 283 281 285 285 286 288 291 290 289 290 291 289 288 288 289 289 289 289 290 290 290 290 290 290 289 290 289 290 290 291 290 290 291 291 291 292 291 291 291 291 292 292 293 293 293 293 292 293 292 294 295 295 296
286 282 282 277 276 274 273 273 278 282 284 281 280 281 282 284 280 280 278 273 274 271 276 272 276 283 284 284 287 286 285 287 286 285 284 283 284 287 292 292 291 289 288 286 287 288 289 288 288 288 289 290 290 290 290 290 290 290 290 290 288 289 289 289 289 290 291 290 291 291 291 290 290 291 291 291 291 291 291 291 291 292 292 292 294 294
280 281 285 284 282 280 282 283 284 285 283 282 282 283 283 285 284 283 278 274 279 276 276 281 283 284 282 285 285 289 283 284 288 287 287 288 287 286 285 287 288 288 288 288 287 287 286 289 291 288 288 288 287 288 288 288 289 289 289 290 289 288 288 288 289 289 290 290 290 290 290 290 290 291 291 290 291 290 290 290 290 290 291 291 291 292
278 282 283 284 285 285 285 282 282 288 284 285 283 283 284 284 283 283 282 282 283 277 275 281 283 282 284 283 283 283 284 283 283 284 285 286 287 290 290 287 288 288 288 286 287 287 288 287 287 288 289 288 287 287 287 287 287 287 287 288 288 288 288 288 288 289 289 289 289 289 290 289 289 289 290 290 289 289 289 289 289 290 290 290 290 291
283 283 284 282 284 285 281 281 283 285 286 285 285 284 282 284 282 282 284 287 283 282 281 286 283 282 285 286 288 287 286 288 289 289 288 288 287 287 287 289 288 289 289 288 287 287 287 288 289 288 287 287 287 287 287 287 288 288 287 287 288 287 288 287 288 288 288 288 288 289 288 289 289 289 289 288 289 288 289 289 289 289 289 289 289 290
286 280 282 283 283 284 281 281 282 285 283 283 285 284 285 284 283 285 286 287 286 284 286 285 282 285 288 286 289 290 287 287 285 285 286 287 289 290 288 288 288 290 290 290 289 289 288 288 287 287 287 287 287 287 287 288 288 287 288 288 288 288 288 287 288 288 287 287 288 288 288 288 287 288 288 288 288 288 288 288 288 288 288 289 289 289
287 281 285 281 279 281 281 280 281 282 283 281 282 284 285 285 285 286 287 287 286 286 286 285 283 283 289 286 286 287 288 287 287 287 288 288 287 288 289 290 290 290 291 289 288 288 288 287 287 287 288 288 287 287 287 287 287 287 288 288 288 288 287 286 287 287 287 288 288 287 287 287 287 287 288 288 288 288 288 288 288 288 288 288 288 289
286 280 280 280 278 277 279 280 280 279 280 280 280 281 283 283 282 284 284 286 284 283 285 284 283 285 289 288 289 290 287 287 288 288 288 290 290 289 289 290 290 290 290 289 288 287 287 286 286 287 287 287 287 287 287 287 287 287 288 287 287 287 286 286 287 287 288 287 288 288 288 288 288 289 289 288 289 288 288 287 287 288 288 288 288 288
284 283 280 279 277 277 277 280 278 278 277 275 279 282 284 285 286 286 286 285 286 288 284 282 284 290 290 287 289 286 287 288 288 289 290 290 290 290 290 291 291 289 287 288 288 287 286 286 287 287 287 286 286 286 287 286 287 287 286 286 286 285 286 287 286 287 288 288 288 288 288 288 288 288 289 288 288 288 288 288 288 288 288 289 289 288
282 284 280 281 279 273 274 277 278 277 272 276 287 288 286 285 285 283 284 286 287 287 287 290 290 292 289 285 288 287 287 289 291 291 290 291 291 290 289 288 287 286 286 285 285 285 286 286 286 286 286 286 286 286 286 286 286 286 286 285 286 286 286 286 287 287 287 287 287 287 287 287 287 287 287 287 287 287 287 287 288 288 288 287 288 288
283 283 278 277 278 276 273 277 276 273 276 286 285 287 288 288 288 287 288 288 289 289 289 288 288 289 290 290 290 290 289 289 286 287 287 285 286 288 289 287 285 286 286 285 285 285 285 286 285 286 286 285 286 286 285 286 285 285 286 285 286 285 286 287 287 287 287 287 287 287 287 286 286 286 286 286 286 286 286 286 287 287 287 287 287 288
283 283 279 278 277 276 273 274 273 274 281 282 283 285 286 287 287 286 285 287 287 287 289 288 290 292 292 292 291 287 288 286 286 284 283 284 284 285 285 285 285 285 285 285 285 284 285 285 285 285 286 285 285 286 285 285 285 285 285 285 285 286 286 286 287 286 286 286 286 286 286 286 286 286 286 285 285 285 285 286 286 286 287 287 287 287
286 284 282 280 280 278 276 277 277 280 281 282 285 284 286 283 283 283 281 285 289 289 289 289 291 291 292 292 291 286 286 287 289 287 284 283 284 284 285 284 284 284 284 284 284 284 284 284 285 285 285 285 285 285 284 284 284 284 285 285 285 285 286 286 285 285 285 285 286 286 286 285 285 285 285 285 285 285 285 285 286 286 286 286 286 286
289 287 284 284 280 282 276 273 276 276 276 281 286 285 287 287 289 289 286 284 287 289 290 290 289 291 291 290 288 286 286 288 286 285 284 283 283 284 284 284 284 284 284 284 284 284 284 284 285 285 285 284 284 284 284 284 284 284 285 285 285 285 285 284 284 285 285 285 285 285 285 285 285 284 284 284 284 285 285 285 285 285 285 285 286 286
289 289 286 285 283 282 279 277 276 275 278 285 285 285 286 284 289 286 284 282 286 284 288 289 289 290 289 289 288 286 287 284 286 283 284 282 282 283 284 283 283 283 284 284 284 284 284 284 284 284 284 284 284 284 283 283 284 284 284 284 284 284 283 283 284 284 284 284 285 285 284 284 284 284 283 283 284 284 284 284 285 285 285 285 285 285
287 287 286 284 283 283 281 279 277 279 280 284 284 285 284 283 290 288 278 278 288 281 281 285 289 289 289 286 286 286 287 284 286 284 283 282 282 283 283 283 283 283 283 283 283 283 283 284 284 283 283 283 283 283 283 283 284 283 283 283 284 283 283 283 283 284 284 284 284 285 285 284 283 283 283 283 283 284 284 284 284 284 284 285 285 285
284 285 286 282 284 284 284 282 282 282 283 282 284 286 284 287 290 283 279 285 284 280 282 282 283 283 282 283 286 286 283 283 284 284 283 283 283 283 282 282 282 283 283 282 282 283 282 283 283 283 282 283 283 283 283 283 283 283 284 284 283 282 282 283 284 284 284 284 284 284 284 284 284 283 284 284 284 284 283 284 284 284 283 283 284 284
285 285 284 286 283 283 284 282 283 284 284 286 282 284 285 289 282 281 286 282 281 281 281 282 282 281 282 284 282 282 282 282 282 282 282 282 282 282 282 282 282 282 282 282 282 282 282 282 283 282 282 283 283 283 284 283 283 283 283 283 281 281 282 283 283 283 283 282 282 283 283 283 283 284 283 284 284 283 283 284 283 283 283 283 283 282
284 283 280 282 284 284 283 281 280 277 287 287 286 286 288 285 285 287 284 283 281 281 281 281 282 283 283 282 283 283 282 282 282 282 281 281 281 281 281 281 281 281 281 281 281 281 282 282 282 282 282 282 283 283 283 283 282 282 282 280 280 281 282 282 282 281 281 281 281 281 282 282 282 282 283 283 283 283 283 283 283 282 282 281 281 281
289 283 283 284 286 279 281 278 280 286 287 288 291 287 288 289 287 285 286 283 284 282 282 282 281 282 283 283 282 282 282 281 281 281 281 281 281 281 281 281 281 281 281 281 281 280 280 281 281 281 281 281 281 281 281 280 280 280 279 279 280 280 280 280 279 279 279 279 279 279 280 280 280 281 282 282 282 282 282 282 283 282 282 281 281 281
288 285 286 282 286 283 281 284 286 283 286 284 283 285 285 286 287 287 287 286 284 283 281 283 282 282 283 283 283 282 281 281 281 281 281 281 281 281 281 280 280 280 280 279 279 280 281 280 279 279 279 279 278 279 279 279 278 278 277 278 279 279 278 277 277 277 276 277 277 277 278 278 279 280 280 281 282 281 281 281 282 281 282 281 280 281
283 285 284 285 283 282 286 285 284 283 283 281 282 282 282 284 285 286 287 286 284 284 284 284 283 283 282 283 282 281 282 282 281 281 281 281 281 281 281 280 279 279 279 279 278 278 278 278 277 276 276 276 276 276 277 277 277 276 276 277 278 277 275 274 273 274 274 274 275 275 276 276 277 279 280 280 281 281 281 281 281 281 281 281 281 281
283 283 285 282 282 285 282 282 282 283 282 282 283 282 281 282 283 284 285 287 286 284 283 284 284 284 283 284 285 284 282 282 281 281 282 282 282 282 280 279 278 277 276 276 276 276 275 275 274 274 273 273 274 275 275 276 277 277 277 277 275 274 273 272 271 271 272 272 272 273 275 275 276 277 278 279 280 280 280 280 280 280 280 280 280 280
283 282 284 279 282 283 280 281 282 283 283 283 282 282 283 282 281 281 282 283 284 283 283 282 281 281 281 281 283 283 283 283 282 281 281 281 281 280 277 276 275 275 275 275 274 274 273 272 271 271 272 272 273 273 274 275 276 276 275 274 273 272 271 270 270 269 269 270 271 272 273 274 275 275 276 277 277 278 278 279 280 279 279 280 280 280
281 285 279 281 281 279 280 282 283 284 282 281 281 282 282 282 282 281 282 283 283 282 281 279 279 280 281 281 282 282 280 279 279 279 279 279 278 276 274 273 273 273 273 273 272 272 270 270 270 270 270 270 272 272 273 274 275 274 273 272 271 271 269 268 269 268 268 269 270 270 271 272 272 273 274 275 276 277 278 278 278 279 279 281 281 281
282 281 279 281 276 277 282 282 284 283 280 285 284 285 282 282 282 281 281 281 281 280 279 278 277 277 276 277 278 279 278 276 275 275 275 276 274 272 272 272 272 272 271 271 270 270 269 269 269 269 269 269 271 271 272 274 273 272 272 271 270 269 267 267 266 267 267 268 268 268 269 270 271 272 273 273 273 274 276 278 280 280 279 279 282 283
284 283 281 280 281 281 284 284 287 288 285 284 288 285 282 282 281 280 281 281 281 281 280 277 276 275 275 274 275 276 276 274 273 273 273 272 269 269 270 269 269 269 269 269 268 267 267 267 268 268 268 268 270 270 272 272 271 270 270 269 268 267 265 265 265 265 265 266 266 267 268 269 269 270 271 272 272 273 274 275 277 279 281 281 281 282
Wind_Speed
1 6 7 8 8 7 5 4 4 3 8 6 5 5 4 4 1 3 3 2 0 1 5 4 6 6 11 12 12 12 2 5 7 11 11 10 10 9 9 10 10 10 15 4 5 7 8 9 9 8 8 9 9 9 10 11 12 13 13 12 14 13 11 10 10 10 9 9 11 11 12 10 6 9 10 9 9 8 8 10 10 11 12 13 11 10
3 4 7 5 8 9 7 8 10 9 5 6 5 5 3 1 3 1 0 2 3 1 2 3 4 11 12 11 12 10 4 11 11 11 11 13 11 9 9 11 11 12 4 5 8 8 5 7 6 6 7 8 10 12 12 14 15 14 13 13 13 9 11 12 11 10 10 10 9 9 11 11 10 8 9 10 9 9 8 10 12 11 8 8 9 10
2 9 3 5 4 9 8 5 4 7 6 4 5 3 2 4 3 3 1 2 4 1 5 2 4 11 12 10 11 9 12 8 8 9 9 8 10 9 8 10 10 7 11 6 11 8 7 6 6 7 7 8 11 10 13 14 11 11 11 12 11 10 11 12 12 11 11 10 9 9 5 8 5 7 8 9 9 8 7 7 10 11 13 14 13 14
3 4 4 3 6 9 4 4 8 8 6 6 5 3 5 2 3 4 3 1 3 2 2 1 5 11 10 6 12 12 8 7 6 7 10 8 12 14 12 7 7 9 10 13 11 10 7 8 7 6 8 9 8 8 9 10 13 11 11 12 12 11 12 11 12 12 11 9 5 5 3 4 5 4 5 5 5 8 9 8 7 9 10 13 13 13
6 0 0 7 4 8 6 2 7 5 2 1 3 4 3 2 2 2 1 0 1 1 2 1 4 9 4 7 7 3 4 4 7 6 8 10 10 10 9 9 10 14 12 13 12 9 7 7 9 10 9 6 9 10 10 11 11 10 13 13 13 11 11 10 10 11 9 6 5 4 3 2 2 2 3 4 4 7 7 6 8 9 6 7 9 10
2 1 3 6 3 3 6 3 4 8 1 0 4 5 4 4 6 0 1 2 3 2 5 2 3 4 4 7 9 9 8 6 3 5 10 9 6 4 9 12 8 8 10 13 14 11 5 7 6 6 7 8 8 9 10 9 10 10 9 9 10 9 9 10 11 11 9 9 8 7 7 7 6 7 6 8 10 6 8 10 6 4 6 7 7 7
2 1 2 6 6 3 4 4 4 5 6 3 5 6 4 7 7 6 3 3 1 1 2 3 3 6 7 6 6 5 8 12 8 5 11 8 6 5 8 8 8 8 9 8 11 10 10 9 7 8 7 8 9 10 6 7 8 9 8 9 10 10 8 8 9 10 9 8 8 10 11 10 10 10 9 8 7 8 7 6 7 6 5 6 8 7
2 1 4 5 5 5 5 4 3 7 7 5 1 6 8 8 7 5 5 2 1 1 2 5 3 1 7 9 4 5 5 10 10 10 8 6 4 6 7 8 9 10 9 9 9 9 8 7 7 9 7 7 8 5 6 7 7 10 10 10 10 8 8 8 9 10 10 10 9 10 10 10 10 10 10 8 7 6 5 6 7 6 6 6 6 6
3 3 3 4 2 4 7 4 4 7 6 2 2 5 6 7 5 6 5 5 1 1 5 3 1 1 5 9 3 3 3 5 9 10 9 7 8 6 6 6 7 9 10 8 10 10 7 6 6 7 7 6 5 5 7 7 8 7 8 8 8 8 8 8 10 10 10 10 10 10 9 9 9 8 6 3 3 5 5 7 7 7 7 7 7 7
2 3 6 5 7 7 2 2 1 3 4 1 5 7 8 8 7 5 4 4 1 1 5 3 1 3 8 7 5 3 1 7 11 12 9 7 7 8 8 8 7 7 7 7 10 10 9 7 6 5 6 5 3 4 5 5 6 7 7 8 9 8 8 8 10 10 10 10 9 9 9 11 8 5 3 4 5 6 6 7 7 8 8 8 7 7
1 3 3 3 3 2 5 3 1 2 1 10 4 8 7 8 5 4 7 3 3 1 6 3 4 1 5 6 7 3 5 7 4 5 5 6 6 6 6 6 7 8 7 7 6 7 8 7 6 5 3 2 2 2 4 6 6 6 7 8 9 8 7 8 10 10 11 9 9 10 10 11 10 9 7 6 6 5 5 7 7 7 7 7 7 7
1 1 1 0 3 3 3 5 5 3 4 5 3 5 7 5 6 4 4 5 2 5 4 1 1 0 6 6 6 7 5 5 3 3 7 8 7 7 6 6 7 6 7 8 6 4 4 2 4 3 3 3 3 4 5 5 5 6 6 7 8 7 8 7 8 9 9 9 9 9 9 10 10 10 9 10 10 9 9 9 8 7 6 6 6 6
1 3 1 2 3 7 3 9 5 1 4 4 6 7 8 1 4 1 2 2 5 5 1 2 2 1 11 9 7 9 10 8 7 7 6 6 9 8 7 8 8 7 7 6 6 5 3 2 1 1 1 1 3 4 4 5 5 5 6 8 9 8 7 7 7 9 9 9 9 9 9 10 8 9 10 10 10 9 8 8 7 6 7 6 6 7
4 1 1 0 2 4 4 10 2 1 1 2 8 7 6 2 2 2 3 1 6 5 4 1 1 4 5 7 14 18 17 3 8 11 8 6 8 8 8 9 10 9 7 6 5 5 4 2 1 1 1 2 3 3 4 4 5 5 6 6 8 8 7 7 7 8 8 9 9 9 9 8 8 9 9 9 9 8 8 7 9 9 9 9 10 9
3 3 6 7 2 3 1 2 10 7 10 7 0 7 8 7 6 5 4 5 6 5 2 4 1 7 2 1 1 7 10 5 5 5 5 7 8 8 8 10 10 8 6 3 4 3 2 3 1 0 1 2 3 2 3 3 4 5 5 6 7 7 7 7 8 7 9 8 8 8 8 7 7 8 8 7 7 7 8 7 8 7 7 8 8 9
7 4 2 3 2 1 8 1 3 5 5 0 2 4 5 7 5 2 3 2 1 1 1 1 6 4 5 3 9 5 8 9 6 6 3 8 5 4 7 7 7 7 6 4 2 1 1 2 2 2 2 2 3 3 3 4 4 5 5 5 5 6 7 7 7 7 8 8 7 7 9 9 9 7 6 5 6 6 7 7 8 8 8 8 8 7
4 4 1 6 2 1 1 1 0 2 8 4 4 3 3 2 11 7 1 1 1 4 6 2 8 7 8 7 10 7 2 9 5 5 4 6 4 2 6 6 7 7 5 4 3 3 3 2 2 3 2 3 3 4 6 6 6 7 7 6 6 3 5 6 6 6 5 4 5 7 7 7 7 7 8 8 8 8 7 6 7 8 8 7 7 7
10 3 2 2 2 1 0 0 2 5 1 9 2 7 2 2 5 5 3 2 3 3 7 2 7 6 4 9 5 5 3 9 3 8 5 4 3 3 4 5 6 6 6 5 7 6 6 6 5 4 4 4 5 6 6 7 7 6 6 7 7 6 7 6 6 5 5 5 5 6 6 6 6 6 7 7 8 6 6 7 7 7 7 8 7 7
7 3 0 1 0 3 1 0 5 2 3 2 3 3 6 3 2 2 5 1 1 2 5 3 3 6 7 8 4 2 1 0 3 0 0 1 2 2 3 5 6 6 6 5 3 4 4 4 5 4 3 3 5 5 5 5 6 5 5 6 7 9 7 6 5 5 4 6 6 6 6 6 6 6 6 6 6 6 7 8 7 8 8 6 6 6
1 5 2 1 3 1 1 3 9 3 3 1 2 4 0 3 1 4 6 3 4 4 2 7 3 7 7 6 8 10 8 8 4 4 4 4 5 4 4 4 4 4 4 6 6 5 4 5 6 6 4 3 4 5 5 5 4 6 6 7 6 4 3 4 5 6 7 7 6 6 5 6 5 5 6 6 6 7 8 8 7 7 7 8 6 7
3 1 4 1 2 2 3 4 9 11 10 2 2 2 0 2 2 4 1 3 4 5 5 2 6 6 6 8 6 9 9 8 8 6 1 3 2 2 3 5 5 5 5 6 6 6 5 4 3 3 4 2 1 2 2 4 6 6 5 6 6 7 6 6 6 6 6 4 5 5 7 6 5 6 5 6 7 7 8 7 7 7 7 3 7 7
4 2 8 3 2 5 5 1 2 8 6 9 10 10 11 9 5 4 7 3 2 3 4 4 9 5 9 4 9 8 6 5 4 5 4 7 4 4 6 7 6 7 5 4 4 4 4 3 2 0 1 1 2 3 4 5 5 5 7 6 5 5 5 6 5 5 5 4 4 6 5 5 4 5 5 6 7 8 8 7 7 7 5 8 7 7
4 3 9 4 6 6 1 1 2 1 1 2 4 7 7 3 7 5 6 5 3 0 5 3 0 11 8 4 5 5 2 3 3 3 7 3 7 7 8 6 6 7 7 5 4 3 2 3 2 2 0 2 5 5 4 5 5 6 5 5 5 6 5 5 4 4 4 4 5 6 5 4 4 4 4 6 7 8 8 7 7 6 7 8 7 6
5 4 5 2 2 3 2 1 2 0 1 1 4 2 5 9 7 7 3 6 8 2 2 1 2 9 3 0 3 5 6 7 7 5 6 7 4 4 4 3 1 0 2 4 3 2 4 5 4 1 1 1 2 2 1 0 1 2 2 2 1 1 2 2 3 3 3 4 5 3 2 3 3 3 5 6 7 9 8 7 7 6 7 7 6 6
5 4 9 3 3 2 3 1 1 1 1 5 4 4 2 4 6 3 5 1 2 8 8 7 7 10 2 4 1 1 3 3 5 3 5 5 3 5 2 2 1 2 2 3 4 5 5 5 5 3 2 4 5 5 6 6 5 5 4 2 1 1 1 1 1 2 3 3 3 2 2 3 2 3 4 7 7 9 8 7 7 6 6 5 6 6
4 5 9 8 10 9 7 6 10 13 14 3 1 3 5 9 9 5 4 1 4 3 9 5 9 4 1 2 1 1 2 2 3 3 4 6 5 2 1 2 2 2 2 4 5 6 5 5 5 4 5 5 5 5 7 7 7 7 7 5 3 4 3 1 1 2 1 1 1 2 2 4 3 5 6 7 8 8 7 7 6 5 5 5 6 6
3 1 7 11 14 15 15 11 1 11 7 7 6 10 8 7 7 4 6 5 11 5 8 11 12 9 1 0 1 2 2 3 2 1 1 2 3 4 3 2 1 1 1 1 3 6 6 4 6 7 5 5 5 6 7 7 7 7 7 8 8 7 6 5 4 3 1 2 1 3 4 4 5 5 6 7 7 7 6 6 6 5 5 4 5 6
3 4 8 10 13 14 9 3 5 10 10 10 11 10 10 10 10 10 10 13 6 11 8 11 15 13 14 5 5 5 6 4 6 4 5 3 4 4 2 0 5 3 4 3 2 2 3 4 5 4 5 5 6 7 7 7 6 6 6 6 7 7 7 6 5 4 3 3 4 4 5 5 5 5 6 6 6 7 7 6 5 5 5 4 5 6
6 9 8 7 12 10 2 5 6 6 8 10 13 12 12 13 11 14 15 17 9 10 17 17 6 10 15 9 10 9 7 6 6 6 6 4 3 2 1 2 3 5 5 3 2 2 3 3 3 3 4 4 5 5 5 6 6 6 4 3 5 5 5 5 3 3 3 2 2 4 5 5 5 5 5 6 7 7 6 5 5 5 4 5 6 6
4 5 6 7 12 9 2 5 3 8 2 3 10 14 16 16 17 19 18 18 15 15 17 11 8 16 16 8 12 8 7 6 3 1 1 1 4 1 1 4 5 7 8 3 3 3 3 3 3 2 2 3 4 4 5 5 5 4 4 5 5 5 5 5 3 2 2 1 3 4 4 4 4 4 5 6 6 5 4 4 4 4 5 5 5 6
5 5 7 4 4 7 5 3 2 4 6 5 4 9 12 15 17 19 18 18 15 14 14 9 6 15 12 8 7 6 6 5 0 1 4 6 5 5 6 6 7 7 9 1 2 2 3 1 1 4 7 6 7 6 5 4 4 5 5 6 6 6 6 5 6 4 2 2 3 3 3 2 3 4 2 4 4 5 5 5 5 5 5 5 5 6
4 4 2 4 6 5 2 9 5 3 2 2 3 7 10 13 14 15 16 10 7 10 12 9 12 17 10 12 7 9 5 5 8 7 7 8 9 8 7 7 7 9 5 0 1 1 1 3 5 5 5 6 6 6 6 6 6 6 6 6 7 7 6 6 5 4 3 3 3 3 4 4 5 6 7 7 8 7 6 6 6 6 6 6 6 5
6 6 5 5 6 6 1 6 7 5 3 3 8 13 21 20 17 7 5 2 10 14 12 10 18 19 6 6 7 2 6 8 8 9 11 10 8 7 9 11 8 4 4 1 1 2 3 4 5 5 5 5 6 6 6 5 6 6 6 6 6 6 6 6 6 6 6 7 7 7 7 7 8 8 8 9 8 8 8 8 8 8 8 8 7 6
3 6 5 3 7 2 1 7 5 8 8 12 13 18 16 15 14 8 9 15 14 11 10 15 16 14 5 5 8 7 9 10 10 7 3 5 7 8 7 4 1 0 2 2 2 3 4 5 5 5 4 3 4 4 5 3 4 5 5 5 4 4 4 4 5 5 6 5 6 7 7 7 8 8 8 8 8 8 8 8 8 8 7 7 7 7
8 5 5 3 3 3 2 5 6 9 12 9 1 6 14 15 14 19 19 18 16 14 13 12 11 13 13 10 11 10 5 5 3 2 3 4 2 4 5 2 4 6 6 5 6 5 5 4 4 4 5 6 5 4 4 4 4 5 4 3 4 4 5 5 5 7 6 6 6 6 7 7 7 7 8 8 7 7 6 8 8 7 6 5 7 8
8 8 4 1 4 5 3 4 6 9 6 2 1 2 3 8 9 10 13 12 7 8 14 16 19 20 17 14 6 4 5 4 4 7 6 5 5 3 2 6 6 7 8 5 5 4 5 4 5 4 4 2 4 4 4 5 4 4 4 3 5 6 6 6 7 9 9 9 9 9 8 7 7 7 7 7 7 6 7 7 7 8 7 6 6 6
9 5 4 5 3 7 6 9 7 3 6 3 4 3 10 9 8 11 11 14 16 15 15 17 20 18 16 13 6 4 3 3 2 1 7 5 6 7 8 7 7 7 6 5 5 5 3 3 4 4 2 3 4 5 5 4 2 1 3 6 6 6 7 8 10 10 10 9 9 9 9 8 9 9 9 8 7 7 7 7 8 7 5 7 7 7
6 11 5 8 4 5 5 3 0 2 9 9 8 1 2 6 12 13 10 7 4 10 15 16 17 17 16 10 5 4 4 2 6 5 3 4 3 7 7 6 6 6 6 5 4 5 5 4 4 3 4 3 5 5 3 2 2 4 7 7 7 8 9 10 10 9 9 9 9 9 8 8 8 8 8 8 8 8 7 7 6 6 5 6 8 8
1 1 0 8 3 6 5 6 6 7 9 9 6 4 4 4 11 7 5 12 5 4 10 14 17 15 10 10 6 8 5 6 10 2 1 2 3 3 8 6 6 6 5 5 5 6 4 3 4 3 3 5 10 7 5 4 5 7 9 7 7 8 10 10 9 9 10 9 8 7 7 7 7 6 7 7 8 7 8 8 8 8 6 6 7 9
5 4 3 5 6 5 6 7 9 4 4 2 2 1 3 4 9 10 7 8 8 2 1 4 12 14 12 4 5 7 8 8 10 6 3 3 3 3 5 6 6 5 6 5 5 4 3 2 2 6 10 10 8 6 7 5 6 8 8 7 6 9 10 9 9 8 8 8 8 7 7 6 6 6 6 8 8 7 7 7 7 7 7 7 6 8
7 4 9 14 12 12 12 7 3 5 3 3 4 1 4 7 11 11 16 5 2 1 1 4 3 2 4 5 6 7 3 2 4 9 6 4 5 5 4 4 4 4 5 6 6 3 4 4 6 8 6 5 5 6 6 6 7 9 7 6 8 10 9 8 7 8 8 8 8 8 7 6 6 8 7 6 7 8 7 6 7 8 7 9 8 7
8 6 3 8 12 13 12 14 12 4 5 8 1 6 4 7 8 12 3 1 5 3 0 2 5 2 3 5 3 5 7 5 7 7 7 5 6 5 4 3 3 4 3 4 5 5 4 4 5 5 6 6 7 7 7 6 7 7 7 7 9 9 8 7 8 7 8 8 8 8 8 8 8 7 8 8 7 9 9 6 6 7 8 7 8 10
11 9 8 10 5 1 2 7 3 9 5 8 9 2 1 4 4 4 6 1 1 4 6 3 4 5 7 7 7 11 10 7 7 7 5 5 5 6 4 4 5 5 5 6 8 8 6 6 7 7 7 7 7 8 7 7 8 8 6 8 9 8 8 9 9 9 9 9 9 10 10 9 10 10 8 9 9 9 11 10 8 9 7 7 9 9
5 7 4 5 5 8 11 10 8 4 5 7 11 9 7 7 4 7 9 5 3 3 5 6 2 3 6 14 12 10 9 9 6 6 6 4 4 4 4 4 3 4 4 5 6 6 5 6 6 6 7 7 8 8 8 8 8 7 8 9 9 8 9 9 10 10 10 10 10 11 11 11 11 9 9 9 10 10 10 11 10 9 8 7 8 9
6 8 4 7 4 7 4 5 1 1 3 1 1 1 1 2 4 7 5 8 9 5 3 6 8 6 9 13 11 11 9 5 8 7 6 5 5 5 5 4 5 5 6 6 7 7 6 7 7 7 6 7 9 8 8 9 8 9 10 10 9 10 11 12 12 12 11 11 11 11 12 12 11 11 10 9 9 11 11 12 10 11 10 7 7 8
3 1 0 3 3 0 1 2 2 1 1 2 1 1 1 1 0 4 10 9 4 7 9 11 10 11 10 11 14 5 8 9 8 5 5 6 5 5 5 5 5 5 5 5 6 7 6 6 6 7 8 8 10 9 8 9 9 11 10 10 10 11 12 12 13 12 13 12 11 12 12 13 13 11 10 11 9 8 8 10 11 10 11 9 8 8
2 1 1 2 1 6 6 3 3 2 1 1 1 2 2 0 1 2 4 7 9 8 6 6 13 13 13 11 13 13 11 9 10 7 6 5 5 5 5 5 5 6 6 7 8 7 6 7 7 8 8 8 9 8 8 7 7 7 8 8 10 10 11 10 11 10 9 10 11 11 10 11 10 11 11 9 8 8 8 8 9 10 11 10 9 9
3 3 1 1 4 7 3 1 1 1 1 3 3 5 4 3 1 3 2 3 7 5 4 5 4 6 4 5 6 11 10 7 8 7 7 6 5 4 4 5 5 5 6 7 7 7 6 8 7 7 8 7 7 7 7 6 6 8 9 9 9 10 10 10 10 10 10 11 9 9 9 10 12 12 10 10 9 9 10 9 8 9 11 12 10 10
2 5 4 5 5 1 2 1 1 2 2 3 4 4 1 3 4 4 4 7 7 10 8 5 4 2 3 5 5 9 10 6 5 5 5 5 5 4 4 5 6 6 6 7 7 8 7 6 6 7 7 7 7 6 7 6 6 9 9 9 9 10 10 10 10 10 9 9 8 8 9 8 9 9 10 11 10 9 8 10 11 11 13 12 9 8
4 7 2 4 2 3 10 8 9 6 3 6 8 9 6 5 5 6 6 7 7 9 8 10 7 6 6 5 3 5 10 7 5 5 6 5 5 5 5 5 5 6 6 6 5 6 7 7 7 7 6 6 6 6 7 5 8 8 8 8 9 10 10 11 10 10 9 8 8 8 9 8 8 9 10 11 11 13 13 11 13 13 13 15 16 15
8 5 6 6 8 9 5 6 13 7 1 4 11 9 9 7 8 10 10 11 8 7 9 13 11 6 6 6 5 6 7 7 6 5 6 5 6 5 5 6 5 5 6 6 6 7 7 7 6 6 7 6 6 7 6 6 8 8 8 8 9 10 10 11 10 8 8 9 8 9 10 10 10 10 10 9 11 11 13 16 16 14 17 20 23 24
Wind_Direction
115 137 175 193 194 186 200 171 163 170 145 108 81 94 168 162 273 280 281 274 301 130 245 252 282 276 270 265 272 278 245 269 272 277 269 259 257 252 250 245 242 240 242 257 229 229 226 225 220 217 203 210 206 206 199 199 203 202 201 193 207 204 199 198 198 201 199 197 199 208 216 226 208 202 202 207 206 199 185 185 193 190 198 193 190 188
72 142 226 195 186 185 169 123 108 75 56 134 140 153 209 195 160 205 135 341 318 158 288 19 318 275 260 269 267 274 303 267 250 252 259 261 252 248 241 250 245 244 290 289 277 252 241 243 231 212 206 193 194 211 199 203 206 205 200 201 208 193 199 204 200 198 198 202 202 195 202 204 206 203 202 208 209 209 200 191 189 186 188 189 190 193
151 203 228 207 128 91 92 90 69 117 109 54 141 150 116 258 239 286 270 327 333 116 266 6 337 282 276 263 264 252 250 245 230 220 239 247 263 256 246 245 256 275 270 271 253 262 251 244 233 208 207 209 211 205 202 211 205 201 201 207 201 195 197 204 202 197 205 202 203 200 189 189 184 193 195 204 193 188 201 196 191 192 187 191 201 201
184 289 243 151 138 103 55 80 95 74 68 113 101 105 200 243 142 255 269 351 357 82 314 331 324 286 285 271 257 258 241 261 264 256 258 239 250 252 251 252 258 259 261 261 252 253 243 236 237 220 214 213 209 210 207 206 204 201 204 204 199 198 198 200 200 203 206 201 195 198 172 183 162 178 172 179 175 182 187 207 205 212 209 193 194 196
181 209 41 134 139 133 127 116 126 123 153 339 132 134 137 160 228 150 183 344 315 67 65 349 293 296 319 318 315 321 328 314 284 314 276 260 243 260 281 277 241 251 254 265 273 257 243 244 236 222 223 199 206 210 207 200 201 199 203 203 198 196 197 198 196 197 192 167 146 125 80 100 90 44 144 174 206 189 185 204 212 216 203 208 206 198
257 305 143 99 88 83 114 134 195 133 170 139 229 172 188 174 135 260 10 101 23 332 6 46 326 307 305 291 251 281 345 324 283 322 282 267 266 265 260 257 262 247 246 248 258 263 258 239 254 251 231 215 217 217 214 202 202 197 200 194 193 192 191 193 191 186 179 181 175 163 164 168 187 204 190 205 208 201 193 207 205 202 196 198 206 196
201 340 113 151 144 123 128 173 222 160 170 139 253 163 142 142 128 126 124 78 45 166 348 17 186 269 320 297 286 324 326 299 301 250 266 278 273 264 257 270 274 267 267 254 259 266 265 257 253 251 232 218 216 223 193 194 197 194 191 188 187 189 188 182 179 177 176 183 183 188 195 198 202 207 213 212 208 203 215 207 200 204 197 203 200 199
91 55 73 80 98 127 133 212 246 144 124 221 238 126 112 115 133 162 111 103 182 256 288 47 97 217 307 281 266 322 312 298 308 294 285 273 279 268 267 277 280 278 270 269 266 261 250 256 234 246 240 222 223 199 178 186 183 187 187 181 184 181 178 177 170 175 182 185 187 191 199 203 208 211 215 200 206 203 185 200 210 203 204 205 214 210
118 156 155 119 88 127 188 205 203 159 139 228 211 143 136 142 141 119 94 107 125 45 279 336 344 288 252 268 315 355 339 315 299 285 276 307 307 298 294 278 273 273 272 263 267 269 269 256 253 255 264 255 238 201 186 184 183 180 172 171 168 173 170 173 172 176 185 189 188 193 197 206 215 216 214 181 188 205 202 209 208 211 214 210 209 210
345 160 205 150 145 194 223 325 324 180 115 255 131 93 94 85 76 96 105 84 355 81 266 218 13 208 277 274 317 336 253 266 256 264 290 281 279 296 302 303 303 302 289 270 258 270 277 271 270 264 274 285 253 207 178 163 161 162 158 161 166 172 173 169 173 177 183 187 185 192 200 207 208 195 184 165 192 204 203 217 215 217 219 222 222 214
230 333 188 95 179 172 130 44 93 12 121 130 141 85 46 41 34 37 59 87 66 326 251 250 301 158 297 265 227 166 215 205 247 301 283 291 295 282 261 268 296 313 316 306 290 268 265 271 275 294 351 4 40 94 138 147 154 152 155 157 167 172 162 167 173 177 183 186 187 196 200 203 205 197 188 189 201 199 206 214 218 213 218 215 218 215
27 9 70 311 67 107 104 75 29 87 92 118 107 131 82 5 11 30 347 32 129 265 263 263 246 246 193 291 280 244 274 227 202 281 290 296 301 292 301 306 305 311 311 316 334 341 342 39 34 45 46 50 66 88 111 129 136 148 151 155 156 159 165 170 172 178 182 185 193 200 197 201 205 195 194 201 207 200 199 203 217 218 222 217 217 216
45 125 218 23 221 120 133 89 357 360 351 83 92 97 115 225 33 281 9 250 212 200 246 329 188 10 241 230 268 279 264 247 213 214 244 268 284 294 298 310 315 311 321 323 335 338 2 25 15 37 18 79 130 141 144 146 148 147 151 159 158 167 167 171 170 182 184 188 196 195 198 204 199 198 198 206 211 203 210 210 215 213 218 216 222 218
271 287 62 134 69 227 150 128 124 137 305 103 138 141 110 115 78 218 273 281 314 290 276 312 245 264 265 273 238 245 256 220 203 220 230 234 249 269 288 313 317 314 307 300 310 314 317 321 308 290 283 239 206 164 157 152 148 153 152 159 163 173 172 166 169 180 183 197 197 198 201 203 192 203 203 209 208 208 208 203 213 212 214 217 220 221
134 291 244 151 206 157 162 159 173 153 159 202 45 154 178 144 157 205 191 190 214 199 286 280 77 233 110 252 295 232 260 294 260 246 250 266 264 273 292 291 290 293 304 316 313 306 305 297 292 286 278 268 241 220 177 165 146 139 151 162 163 160 181 174 181 181 193 198 199 198 202 202 198 207 208 212 208 208 209 210 215 214 218 222 224 222
205 204 282 314 262 143 167 240 117 100 47 309 163 71 97 216 132 133 207 142 163 144 15 225 217 196 182 280 286 234 278 285 275 275 299 275 273 294 301 290 290 295 293 304 301 301 272 258 265 254 266 270 253 234 212 175 159 157 168 171 174 173 179 184 185 199 200 204 198 197 201 208 204 208 206 211 208 215 211 213 211 221 215 221 222 224
35 229 349 308 65 96 173 170 166 139 173 220 103 201 207 115 99 102 58 353 93 44 258 161 310 287 297 309 277 317 283 260 248 278 283 268 286 319 267 290 294 285 289 291 298 270 263 271 244 228 228 233 219 213 196 191 184 176 164 167 173 163 159 192 202 203 210 212 207 219 220 217 214 208 210 215 215 217 211 208 213 220 227 225 219 226
152 211 358 65 157 334 199 165 100 35 147 100 178 223 179 141 126 127 199 352 61 183 263 88 235 300 19 281 330 348 347 289 262 229 253 289 327 284 279 293 276 282 283 276 275 269 263 271 273 255 244 229 212 204 201 197 190 179 169 170 170 178 187 203 193 206 202 209 221 231 233 237 232 226 227 223 225 216 212 220 226 233 237 231 227 222
118 77 329 330 45 268 17 94 56 23 47 142 198 195 115 217 226 312 92 230 150 260 272 295 279 264 196 247 339 278 231 274 266 304 33 315 317 292 293 285 281 284 301 315 313 316 314 298 279 258 233 236 224 222 213 205 177 167 172 180 177 187 195 182 179 185 200 204 213 212 217 221 228 233 239 241 239 225 223 224 219 221 233 240 222 218
55 139 285 317 149 264 21 114 188 188 344 21 74 85 87 100 158 123 197 178 127 244 57 287 36 250 200 219 199 245 260 258 280 315 243 246 265 258 242 252 260 281 309 313 316 301 288 271 259 252 221 210 214 215 219 195 165 170 184 179 195 193 145 157 187 195 210 210 206 216 213 223 219 228 237 241 235 233 232 233 226 229 230 231 218 219
153 110 161 243 290 94 173 198 212 162 149 80 105 186 131 32 230 102 20 124 184 173 184 226 315 277 260 211 183 229 237 237 210 236 130 189 219 246 235 252 273 282 293 298 292 301 297 285 273 257 246 265 325 306 241 177 176 184 181 189 189 182 190 197 204 194 217 197 214 212 228 227 215 237 234 248 238 242 245 241 234 234 236 227 229 217
98 180 165 142 78 219 242 246 185 171 184 167 162 187 171 130 141 168 248 27 93 121 220 134 253 260 272 174 201 211 244 248 244 233 216 225 248 249 265 266 262 284 281 267 281 277 285 292 294 316 35 10 166 205 180 196 169 174 190 195 179 181 192 195 202 196 213 212 216 221 232 232 225 231 238 244 249 245 249 244 237 237 230 232 238 209
139 126 104 165 207 188 216 36 291 21 101 181 161 216 172 161 104 124 198 231 60 360 99 159 331 271 241 214 213 225 244 248 257 219 265 217 204 229 255 259 263 253 267 282 283 289 286 277 299 330 324 198 188 189 187 180 185 185 179 166 170 169 208 199 210 191 192 209 219 232 228 219 219 219 234 243 250 250 249 245 242 229 230 238 240 223
97 103 91 343 321 320 330 332 62 97 140 318 273 113 154 199 184 174 159 177 155 153 91 12 270 254 295 77 228 238 253 273 272 237 235 280 311 288 276 287 320 56 264 279 290 302 300 308 319 5 263 240 21 23 13 324 1 62 74 81 112 160 222 226 205 203 197 209 223 220 211 213 216 210 229 242 247 250 250 246 244 231 231 242 245 241
155 248 134 137 35 347 344 351 350 349 66 211 191 193 166 79 81 135 103 69 104 216 162 132 222 270 270 325 305 286 327 314 281 274 214 254 295 283 236 225 92 19 6 4 357 336 339 7 14 334 320 21 3 7 14 28 41 55 49 62 82 230 234 233 208 180 208 211 223 216 214 252 229 246 253 250 256 254 255 250 249 242 240 249 254 251
180 164 142 152 170 172 190 185 210 211 206 170 128 118 166 146 137 126 182 77 200 269 152 177 242 236 340 314 347 328 333 312 291 272 244 222 239 279 308 109 73 53 3 337 330 356 353 321 311 345 2 5 19 17 11 7 5 4 1 359 43 18 348 296 144 178 180 196 321 346 327 290 262 248 254 255 257 256 259 260 255 254 251 238 258 262
170 163 191 187 189 202 204 206 28 81 73 181 209 159 182 177 166 126 108 120 210 199 171 227 230 250 248 282 228 220 283 245 263 297 304 283 266 247 240 297 340 311 291 282 297 306 321 348 356 340 334 341 349 5 7 5 351 355 356 342 350 358 347 333 357 18 38 30 15 323 301 294 277 265 266 262 265 273 271 265 262 257 261 243 240 257
87 181 215 205 217 216 211 155 200 147 167 193 147 180 175 164 174 156 176 212 169 89 253 237 228 245 237 187 238 247 269 265 272 272 282 281 273 251 222 328 320 309 280 291 303 303 297 303 316 342 337 341 349 352 357 353 352 342 342 330 331 338 335 335 360 7 22 21 359 330 302 287 281 272 267 272 275 269 263 262 263 257 259 248 248 248
153 196 219 182 231 230 134 161 165 156 177 175 177 165 164 177 168 180 209 220 135 193 225 239 187 230 249 165 212 209 197 204 211 228 220 231 262 287 347 317 294 272 274 281 280 272 276 293 300 319 337 342 357 3 354 359 2 3 352 328 329 341 351 335 19 15 16 15 329 280 270 276 273 273 269 268 260 254 255 260 264 268 262 253 253 249
136 234 195 179 218 228 161 148 193 159 151 122 182 178 177 170 186 194 211 216 195 216 229 238 154 229 243 181 210 223 217 215 226 243 349 262 239 236 298 253 247 251 250 202 179 233 237 250 284 291 315 24 37 25 18 12 12 7 9 2 354 357 352 9 20 64 37 306 266 268 270 266 276 273 262 249 253 273 294 294 289 276 272 261 254 256
159 256 133 136 201 249 216 159 126 183 152 182 208 188 181 185 193 200 210 219 215 234 242 257 275 277 255 156 209 234 228 257 89 246 229 239 254 238 230 237 239 245 252 104 205 237 228 253 5 26 31 19 17 15 15 6 357 351 3 2 358 357 349 8 11 24 9 300 277 280 271 254 245 233 256 299 321 325 324 317 304 294 283 276 264 260
163 243 47 109 181 268 185 171 188 91 83 147 158 176 193 193 203 214 211 212 178 212 234 243 263 256 262 136 205 212 191 207 229 228 229 242 234 230 231 244 247 245 260 345 279 299 18 30 34 37 33 19 9 10 11 7 359 4 3 350 354 347 346 6 12 12 3 332 320 331 346 343 341 355 355 353 353 348 338 328 324 315 304 298 296 282
182 143 149 154 179 227 302 162 130 109 75 293 239 208 199 202 205 208 231 239 202 198 208 208 233 244 222 164 218 211 155 219 231 225 230 239 247 234 231 234 247 295 346 360 360 357 1 24 42 47 33 23 13 8 359 351 358 1 343 350 340 343 1 8 17 21 23 8 10 5 360 356 359 352 351 350 341 340 339 339 331 327 329 318 310 311
126 149 171 185 173 242 3 119 125 103 207 226 222 211 183 192 195 182 204 217 221 183 210 211 231 248 236 140 205 222 192 210 220 240 221 223 242 257 260 249 235 254 62 50 43 52 46 52 49 44 37 18 358 350 335 338 346 330 325 318 326 0 13 38 29 39 23 12 9 2 356 355 351 346 338 333 332 333 331 328 317 311 305 303 307 303
164 164 171 160 160 162 165 118 99 206 230 230 324 134 188 198 180 197 216 216 216 211 228 250 259 262 251 212 207 222 217 251 303 306 329 355 310 251 266 9 70 98 92 87 72 57 60 62 58 55 40 21 5 357 360 354 353 337 357 355 22 32 40 39 33 30 19 14 9 6 1 354 344 333 326 323 323 323 319 315 309 309 306 302 295 295
165 158 145 74 125 58 89 165 200 233 230 304 296 194 176 173 193 196 245 251 241 209 211 232 240 243 246 248 228 177 192 209 87 55 18 360 16 359 74 77 76 86 86 79 81 57 61 66 77 73 60 12 18 8 17 360 338 357 6 7 47 33 36 29 28 17 9 6 3 360 354 348 339 331 328 327 325 324 315 312 306 303 307 302 291 279
160 114 149 191 195 176 179 200 218 335 352 290 237 193 162 163 157 172 218 245 225 210 197 218 235 244 251 253 241 142 126 96 182 334 18 20 29 49 82 84 86 81 91 77 78 72 62 59 71 60 70 57 44 33 17 348 337 29 57 53 38 42 33 28 24 12 2 358 353 350 346 345 340 336 336 334 328 319 311 307 304 297 291 289 282 284
165 176 209 174 229 149 133 180 48 233 239 239 222 130 165 165 170 183 178 264 233 208 201 209 228 236 241 251 239 169 134 185 273 245 347 353 37 84 72 85 82 82 76 83 75 73 63 59 72 66 74 66 56 39 7 346 16 52 53 44 34 32 28 27 17 2 356 348 345 339 337 336 334 330 327 326 322 315 308 298 287 283 283 282 290 284
273 65 116 189 195 152 201 208 208 205 232 221 247 189 199 188 151 127 159 244 259 199 200 197 221 233 236 238 224 119 159 219 249 198 239 50 53 72 91 79 82 82 75 69 72 66 59 53 82 80 63 50 39 10 4 5 32 50 47 38 33 31 27 19 3 357 348 338 331 328 325 324 324 320 315 313 310 309 307 306 302 298 289 277 276 277
178 191 139 187 215 196 182 210 227 215 243 254 222 242 220 152 124 105 201 250 233 123 282 178 204 223 228 219 137 147 171 222 241 190 149 124 103 71 88 94 79 72 65 62 54 53 59 51 88 54 43 37 19 351 4 6 33 48 43 33 34 32 23 8 353 339 329 326 326 323 326 324 321 313 309 308 303 300 294 294 297 296 297 291 277 285
186 187 193 202 203 218 221 246 299 287 274 233 199 181 139 159 140 169 215 230 202 206 242 188 188 177 127 135 150 170 238 218 123 128 142 162 106 75 65 76 87 86 80 63 53 54 82 71 67 65 58 40 13 7 8 15 33 39 33 27 32 26 9 353 339 337 330 326 325 325 324 321 315 316 310 300 301 297 293 291 293 298 298 299 300 296
194 187 205 200 213 213 213 223 233 256 230 177 235 174 188 126 198 211 193 73 133 147 6 164 139 163 135 127 138 113 141 129 102 110 113 112 108 107 96 90 85 76 76 83 65 56 69 74 66 63 53 37 26 19 17 20 38 36 29 30 31 12 349 346 342 337 333 330 330 327 327 328 324 319 315 314 313 313 307 296 283 287 294 296 298 301
183 177 186 191 184 168 172 212 145 231 233 143 134 113 211 169 233 138 134 92 142 154 133 107 123 157 132 90 101 121 125 122 120 115 117 116 106 103 93 80 65 60 45 34 36 30 38 50 45 45 44 30 26 24 17 23 32 30 24 32 15 354 348 348 346 342 338 335 335 336 332 331 332 327 327 321 319 314 308 310 311 304 300 298 302 300
178 185 180 211 177 184 189 200 202 210 125 205 158 186 202 213 158 154 136 120 188 167 144 124 90 148 141 126 130 125 128 125 123 126 115 113 115 113 101 82 77 62 54 52 51 27 26 38 39 41 38 34 27 24 21 22 28 22 27 18 356 348 352 352 351 343 342 341 337 334 333 331 328 324 321 319 317 313 308 311 312 306 300 303 300 304
210 198 175 192 166 166 196 212 257 296 151 191 43 260 234 101 141 156 130 144 151 202 179 125 135 135 138 128 126 134 134 150 148 161 140 149 135 127 108 92 67 57 47 43 36 29 29 32 30 27 29 32 27 22 24 21 23 18 19 2 352 357 359 354 350 348 344 341 337 335 330 326 325 323 320 319 319 315 313 310 313 309 307 304 296 293
342 200 100 121 249 349 338 140 94 49 312 291 354 299 165 138 45 142 135 134 192 155 170 147 152 145 146 143 128 142 144 157 145 150 141 136 133 128 120 103 84 70 61 51 43 33 34 40 43 30 19 20 25 19 19 19 20 21 3 350 359 4 357 351 347 343 339 335 331 330 325 321 319 318 316 314 309 301 297 298 302 300 298 297 288 285
253 180 138 151 259 138 237 163 138 189 136 188 194 2 359 134 184 167 158 147 154 155 160 160 153 159 158 164 149 150 156 160 146 146 139 135 124 125 110 93 76 63 49 45 33 26 29 34 33 27 19 14 12 16 9 12 19 17 359 6 8 359 352 345 336 329 328 330 325 322 321 316 315 316 313 311 308 301 297 292 289 289 287 286 288 286
281 182 116 205 160 167 239 49 247 36 218 218 195 169 178 166 69 50 67 84 115 114 113 129 115 121 130 136 148 139 143 148 146 148 148 146 135 115 96 77 65 59 49 49 39 30 36 34 30 19 14 8 4 1 357 353 12 17 15 9 2 354 347 339 335 332 323 321 320 317 319 315 313 314 310 311 309 305 304 298 288 287 286 291 292 294
205 116 212 169 164 290 25 157 115 36 326 260 228 248 226 154 137 103 104 116 126 123 117 80 62 97 106 116 119 129 123 116 85 114 119 121 112 94 72 63 53 47 41 40 34 34 36 26 24 18 12 1 355 346 343 338 16 17 7 5 359 349 348 337 331 322 315 313 316 315 316 310 310 309 308 307 306 294 283 293 299 291 283 272 267 261
96 190 193 99 95 192 210 196 159 124 228 232 223 209 184 164 143 136 127 123 135 123 124 110 85 54 72 61 88 126 129 123 104 101 101 91 83 72 55 48 44 40 39 37 43 37 34 23 24 9 6 351 342 339 326 356 14 5 2 2 356 354 347 337 329 323 321 322 318 314 314 311 308 313 313 312 311 310 305 282 270 272 283 290 284 266
188 190 137 174 182 221 217 147 183 188 149 222 193 177 163 164 152 156 166 157 151 152 148 136 124 94 75 52 31 99 113 114 110 103 100 89 68 61 53 46 36 30 26 22 32 25 23 18 13 4 355 340 339 322 338 14 358 355 358 1 358 355 346 336 327 320 319 323 323 321 319 314 316 313 310 307 309 310 309 311 307 286 273 272 281 285